Location: Saint Louis
(38.6272°N, 90.1978°W)
Time: 01:36:56
(UTC-05:00)

ISS - Pass Details

Date: 10 April 2013
Orbit: 400 x 409 km, 51.6° (Epoch: 30 September)

Event Time Altitude Azimuth Distance (km) Brightness Sun altitude
Rises 21:51:54 0° 310° (NW) 2,367 1.9 -25.6°
Reaches altitude 10° 21:53:58 10° 313° (NW) 1,517 0.6 -25.9°
Enters shadow 21:55:47 29° 320° (NW) 820 -1.2 -26.2°
